Theta_e
315 315 316 316 317 317 316 316 317 318 318 319 319 319 320 320 320 321 322 322 322 323 323 323 324 324 325 326 326 325 321 309 306 309 305 305 317 334 338 337 336 334 334 301 302 300 300 295 299 298 297 296 298 298 298 301 297 292 287 283 285 283 285 287 289 289 288 291 292 293 291 292 293 295 297 295 296 293 293 293 293 296 297 296 298 299 302 305
314 314 315 315 316 316 317 316 317 317 318 318 318 319 319 320 320 320 321 321 322 322 323 324 323 325 325 325 325 325 315 311 307 305 305 318 335 337 339 339 339 334 323 303 301 298 299 298 297 295 296 297 298 299 298 299 295 289 284 282 284 284 290 290 288 291 291 292 292 292 290 293 293 294 296 295 292 293 294 293 293 295 298 300 300 300 302 306
314 314 314 315 316 316 317 317 317 317 317 317 318 319 319 319 319 320 320 321 322 322 323 323 324 324 325 325 324 324 314 306 305 305 308 335 335 337 340 338 336 329 306 307 303 301 302 301 300 297 293 295 293 298 295 297 298 291 285 286 283 288 289 289 290 291 291 293 292 292 292 293 295 295 295 295 291 292 292 292 293 294 295 298 299 300 300 304
315 315 315 315 315 315 315 316 316 317 317 318 318 318 318 319 319 320 320 321 321 322 322 323 324 324 323 325 325 317 306 303 302 304 306 330 335 339 339 339 334 316 306 306 302 303 298 296 294 297 296 290 292 292 294 295 294 293 286 283 292 288 291 294 290 292 291 292 291 291 292 293 294 293 295 290 293 291 291 292 294 295 295 297 298 298 299 301
315 315 315 315 314 314 315 315 316 316 317 317 318 318 318 318 319 319 320 320 321 322 322 323 324 324 324 324 322 311 299 294 298 302 306 330 336 338 338 336 331 307 305 303 300 297 297 297 297 293 294 295 289 290 292 292 293 288 291 288 289 288 293 295 292 292 290 290 291 289 293 294 294 294 291 293 291 290 293 293 294 294 297 298 298 298 298 299
313 314 314 314 314 315 315 315 316 316 317 317 317 317 318 318 318 318 319 320 321 322 322 323 323 323 324 322 310 305 298 287 299 304 329 332 334 334 335 331 327 305 305 300 301 297 300 298 295 293 289 290 290 291 293 293 296 292 292 290 288 289 294 294 292 292 290 292 291 291 293 293 294 293 290 291 294 290 292 292 293 294 298 299 299 298 298 298
313 312 313 314 314 314 314 315 316 317 317 318 318 318 318 318 318 318 319 319 321 321 322 323 323 324 323 319 308 299 298 297 300 309 326 334 332 329 327 319 318 300 300 301 298 300 294 294 293 292 289 291 290 292 294 292 291 289 292 291 295 291 294 292 295 291 289 292 291 290 293 294 292 294 291 291 290 294 293 294 294 296 298 299 298 298 299 298
314 313 313 313 312 314 314 314 315 316 317 318 318 318 319 318 318 318 318 319 320 321 322 322 323 323 321 304 303 295 296 298 302 310 324 329 313 310 313 304 303 302 301 300 301 299 296 295 294 292 289 291 294 293 293 295 292 292 294 292 293 292 292 292 291 290 289 291 292 292 293 294 291 292 292 292 292 294 293 294 296 297 297 297 298 297 297 297
314 314 314 313 313 313 314 314 314 316 317 317 318 318 319 319 318 318 318 319 320 321 322 323 322 322 319 300 297 295 292 300 312 315 312 310 304 302 304 309 302 302 300 298 298 300 300 295 296 294 295 293 296 295 292 294 291 292 295 292 292 294 293 292 292 291 291 293 291 293 292 291 290 292 293 292 293 293 293 294 295 296 295 295 296 297 297 296
314 314 315 314 314 313 313 314 315 315 316 317 318 318 319 319 319 318 318 319 319 320 321 322 322 319 307 299 293 289 296 309 312 314 310 304 302 306 304 304 302 301 305 301 299 298 299 296 299 297 294 295 294 293 292 293 293 292 292 292 294 293 292 293 293 293 291 293 291 293 291 292 291 293 292 293 293 292 294 293 293 295 295 294 295 296 296 297
315 315 315 315 314 314 314 314 314 315 315 317 318 319 319 319 319 318 318 318 319 320 321 322 321 313 303 298 292 289 304 314 312 307 305 306 305 304 305 303 304 302 302 301 301 301 300 298 298 298 299 296 295 293 292 295 293 292 293 294 293 290 291 291 291 291 292 295 290 293 291 290 291 292 292 292 293 293 293 292 292 292 293 293 294 294 294 296
316 316 316 315 315 315 315 314 314 315 315 316 318 319 318 318 318 318 318 318 319 321 321 321 321 308 296 294 291 294 305 310 308 306 306 308 306 306 305 304 304 304 305 302 303 303 301 302 299 299 296 298 292 294 295 293 294 293 294 295 291 289 294 292 293 292 292 294 291 292 293 291 290 290 290 290 293 292 292 292 291 291 291 292 292 293 293 295
317 317 316 316 316 316 316 315 315 315 315 317 318 318 318 318 318 317 317 317 319 321 321 322 316 306 299 293 294 299 303 305 307 307 306 305 304 304 304 303 303 304 305 302 302 304 302 298 298 299 298 294 293 293 295 294 293 294 291 290 291 287 288 292 292 290 292 294 290 293 287 286 290 294 291 293 293 291 291 291 291 290 290 291 291 292 293 292
317 317 317 317 316 316 316 316 315 315 316 317 318 318 318 318 318 317 317 318 320 321 322 321 310 301 295 290 298 308 308 311 309 308 306 306 305 305 304 303 301 301 303 302 303 301 302 300 300 299 299 296 296 298 294 290 291 292 291 287 286 286 284 290 290 290 293 292 290 294 287 288 288 288 288 291 292 293 292 292 291 290 290 291 291 292 293 292
318 317 317 317 317 316 316 316 316 315 316 317 317 318 318 318 319 318 319 319 321 322 322 317 307 301 294 295 301 310 324 309 308 306 307 305 304 304 304 303 303 300 301 301 303 301 302 302 300 296 297 295 297 296 288 287 287 287 288 285 280 285 283 287 291 291 293 292 291 293 286 291 292 292 289 291 292 291 292 291 291 290 291 291 291 291 292 293
318 318 318 318 317 317 317 317 316 316 316 317 318 318 318 319 319 319 320 319 322 322 309 309 304 294 292 292 301 317 307 306 307 306 305 305 304 305 302 302 302 302 301 302 302 301 301 300 297 295 295 296 290 286 284 286 288 282 287 282 285 284 283 288 291 290 292 291 292 292 289 286 290 288 288 291 291 290 290 290 290 290 291 291 291 292 291 292
318 318 318 318 318 317 318 317 317 316 317 316 317 317 319 319 320 320 321 321 316 314 308 304 301 299 292 297 308 302 302 304 306 306 306 305 307 302 301 301 300 301 301 302 301 301 299 297 295 295 291 290 287 286 285 281 282 283 282 285 281 285 284 286 287 290 290 291 289 290 288 289 290 287 290 290 291 289 290 291 290 291 291 291 291 291 291 291
319 318 318 318 318 318 318 317 317 317 316 316 317 317 316 320 321 317 313 311 308 305 305 308 300 295 294 298 296 298 303 305 306 305 305 304 303 301 299 300 297 297 296 299 298 298 297 296 292 291 290 289 291 285 285 281 284 281 285 284 286 284 284 287 286 291 290 290 289 289 287 290 293 291 289 290 290 290 291 292 291 290 291 291 291 291 291 291
319 319 318 318 318 318 318 317 317 317 317 317 318 319 319 319 312 311 307 303 295 293 291 294 291 286 285 291 298 304 305 306 305 306 305 304 303 301 301 299 298 299 295 294 295 297 293 292 292 289 289 287 289 290 289 288 285 284 285 284 282 286 285 285 289 288 291 287 288 286 288 290 292 293 291 289 290 290 291 290 290 290 290 291 291 291 291 291
320 319 319 319 318 318 318 317 317 316 317 314 311 307 302 301 296 299 302 304 297 291 292 292 297 294 298 297 301 305 307 305 303 302 304 305 303 301 299 298 298 294 293 293 293 295 291 289 287 286 290 292 291 291 293 289 287 287 285 284 285 285 286 287 287 288 288 289 287 289 289 290 291 292 294 289 289 289 290 290 291 291 291 291 291 292 292 291
320 320 319 319 318 318 318 318 317 316 317 314 311 301 291 295 287 286 294 300 301 301 299 299 297 295 299 301 301 303 301 301 302 302 305 305 301 302 297 297 293 292 291 290 293 294 291 288 287 291 293 292 292 291 290 287 289 290 287 285 286 284 286 288 290 289 288 289 284 285 287 288 290 292 292 288 288 289 290 290 291 291 291 292 292 292 292 292
320 320 319 319 319 318 318 318 317 317 318 314 311 303 303 297 296 298 296 294 297 302 302 300 300 300 301 303 303 303 300 298 301 303 305 304 300 299 295 294 289 293 289 291 291 291 289 288 291 294 291 289 289 289 289 290 288 287 287 285 284 286 285 289 288 289 289 288 287 286 286 288 290 291 291 289 290 291 292 293 294 293 292 292 292 292 292 290
320 320 320 320 319 319 318 318 317 318 311 310 307 305 304 306 304 302 299 292 294 298 299 298 297 298 299 300 302 303 300 295 296 300 303 303 297 296 294 292 290 289 290 291 291 286 286 287 293 292 290 291 289 287 288 288 288 286 285 285 286 283 287 284 285 287 290 289 285 284 285 288 290 291 291 293 292 292 292 292 293 294 293 293 293 293 292 291
320 320 320 319 319 319 319 318 318 314 309 309 306 304 305 306 306 307 300 293 290 294 298 299 299 297 298 299 302 303 298 297 297 298 304 301 298 295 295 292 290 289 290 291 291 290 290 289 292 293 291 292 290 286 287 286 287 285 287 285 284 286 286 288 286 287 286 289 285 287 287 289 291 291 292 292 291 291 292 290 291 292 293 294 292 292 293 292
320 319 319 319 318 319 318 317 312 308 307 310 308 312 311 307 307 307 299 290 288 291 299 299 300 299 299 304 304 303 298 297 297 300 304 302 295 295 294 293 290 289 290 291 290 289 289 291 291 291 289 289 289 286 287 288 285 284 285 289 289 288 288 285 285 288 283 283 284 287 282 280 283 288 291 288 287 289 291 291 292 293 292 292 292 293 292 292
319 319 319 319 319 319 318 310 307 310 308 306 306 310 312 310 308 307 292 285 284 287 296 292 303 297 305 298 302 299 299 296 297 301 304 302 303 297 295 293 292 290 289 290 290 289 290 291 292 290 289 288 288 288 286 290 287 285 286 288 290 289 287 286 286 286 280 280 285 286 284 281 283 289 288 286 288 291 291 289 292 293 293 291 292 293 291 291
320 319 319 319 319 318 310 304 309 310 303 304 310 309 308 309 307 307 294 283 283 292 292 297 297 295 305 298 301 296 286 287 298 301 302 303 302 302 294 291 291 290 291 290 286 287 289 289 290 288 288 287 286 287 288 291 288 283 285 284 288 287 286 287 285 287 283 281 284 284 282 282 284 289 290 290 289 291 291 292 292 293 292 292 292 292 291 291
320 319 319 319 319 316 309 310 309 305 304 307 308 311 309 309 308 305 290 278 279 295 291 292 297 303 301 300 301 296 290 295 294 298 300 301 301 298 294 289 293 291 291 290 285 288 290 287 288 288 287 286 287 288 288 292 288 285 286 286 286 288 286 285 285 283 283 282 281 281 283 283 281 283 284 287 287 289 292 294 295 296 294 292 291 291 290 291
319 319 318 319 319 318 315 309 308 305 309 308 309 311 311 309 303 296 288 281 293 291 304 295 306 300 295 298 296 293 293 292 291 295 299 300 301 296 292 290 291 291 292 293 290 287 288 290 291 292 290 288 287 285 289 293 288 287 286 287 285 284 283 281 281 285 282 280 279 283 283 280 285 283 286 283 287 289 292 295 296 297 295 292 291 290 290 290
319 319 318 319 318 315 313 312 308 308 311 311 312 312 311 306 298 288 282 279 298 289 295 296 296 293 295 294 293 294 293 292 293 296 297 296 299 298 296 293 293 290 290 291 289 286 290 292 291 290 289 290 288 286 286 292 289 289 287 288 286 282 280 279 280 279 281 277 283 285 283 285 282 282 286 288 288 290 294 294 295 295 291 290 291 290 290 289
319 319 318 318 313 313 313 307 311 312 312 312 312 311 307 297 289 285 280 288 294 294 292 292 291 295 293 292 289 290 292 291 294 295 293 296 294 294 294 293 293 287 285 285 288 286 290 289 290 289 290 288 289 288 286 287 288 291 286 282 286 286 279 279 274 276 276 278 282 284 285 285 280 281 285 289 287 286 292 292 294 293 289 289 288 289 289 289
319 318 318 317 316 317 309 307 313 314 313 312 311 304 300 286 290 282 285 301 289 291 291 288 290 291 293 294 291 291 292 291 293 294 293 291 290 292 292 289 289 282 282 286 284 284 286 287 286 290 290 292 287 288 287 287 290 288 286 288 283 275 273 274 272 276 274 279 280 279 283 281 283 288 283 285 290 290 288 292 294 293 291 288 287 288 288 289
318 317 318 317 315 313 314 314 315 314 313 312 308 302 293 286 280 287 289 293 288 293 290 291 289 291 292 291 290 290 291 290 292 292 293 291 291 292 292 291 291 287 281 284 285 284 283 283 286 289 290 291 292 289 284 284 288 287 288 284 281 274 273 270 266 265 271 276 278 282 283 283 282 286 292 294 295 295 292 290 291 290 291 289 288 288 288 288
318 318 315 316 316 316 316 314 315 314 311 309 304 296 291 283 283 295 291 293 292 291 291 289 290 290 292 290 290 292 289 289 291 291 292 290 290 288 290 292 290 288 284 282 283 284 277 279 285 289 288 291 293 294 292 287 288 290 288 290 286 281 272 267 267 275 277 275 276 278 279 278 278 284 286 290 288 287 286 287 287 287 287 287 286 286 286 287
317 317 316 316 315 316 315 315 315 314 311 305 298 291 283 283 289 287 289 293 291 291 289 292 291 289 288 287 285 292 291 288 290 290 289 289 287 286 287 290 292 290 284 285 283 279 283 283 282 292 289 292 292 292 289 286 286 286 284 284 281 284 280 280 275 272 271 271 272 275 280 280 284 286 286 284 284 286 288 290 288 290 288 285 285 286 287 287
315 314 316 312 312 315 315 315 315 314 309 301 293 285 284 288 286 291 290 298 293 290 289 289 287 286 285 287 286 289 293 289 289 289 287 287 287 288 289 288 292 292 289 286 285 280 282 279 284 288 288 291 293 290 291 290 285 284 286 285 285 284 286 280 275 273 274 271 279 274 281 283 284 288 290 292 286 288 287 287 287 290 290 284 286 286 286 287
310 312 308 311 312 316 315 315 315 312 307 299 290 284 290 292 296 294 298 296 296 294 290 288 287 288 285 285 286 286 289 289 287 288 286 287 288 288 286 289 290 293 294 292 284 286 283 281 285 286 287 287 286 287 287 287 288 286 282 285 286 286 286 282 278 271 268 274 277 278 281 282 279 284 281 285 287 289 287 288 289 287 284 284 288 286 286 287
309 309 309 310 313 316 316 315 314 310 303 296 287 290 293 290 298 297 297 296 295 295 293 291 290 292 285 287 286 286 288 289 285 286 285 288 286 292 290 288 291 294 295 292 290 286 289 283 284 284 285 287 287 290 290 288 288 287 284 289 289 282 279 280 275 277 269 271 275 275 276 280 284 286 285 285 286 289 290 291 288 289 288 287 288 284 285 285
308 307 301 309 315 316 315 315 312 306 299 292 288 287 293 293 298 298 297 298 298 296 292 293 291 291 291 287 287 288 291 287 288 286 285 284 286 290 292 294 290 294 295 295 290 286 288 283 282 285 286 286 287 288 285 285 288 288 289 288 285 284 278 278 283 275 277 271 268 277 275 284 284 285 286 290 288 289 291 290 289 291 291 292 289 285 285 286
304 301 297 310 315 315 315 313 306 302 297 288 288 289 296 293 296 298 297 299 295 296 293 294 294 289 290 289 290 287 289 290 288 287 288 287 289 291 291 294 291 289 293 296 294 294 288 286 281 282 285 286 284 286 286 288 286 284 285 284 286 282 284 282 281 278 278 268 268 273 279 284 284 287 287 291 290 290 290 291 291 292 292 290 287 285 286 286
306 300 300 311 314 314 312 307 300 295 294 295 294 292 294 293 295 296 298 299 298 300 295 294 295 292 292 290 288 291 290 291 289 288 288 288 290 285 291 293 292 290 291 293 293 291 287 284 283 282 282 283 283 283 287 289 292 290 289 286 288 284 281 279 279 280 275 277 278 271 280 287 285 285 291 288 289 289 289 290 291 291 290 287 284 285 286 286
300 292 297 313 314 313 305 296 296 299 296 292 290 293 292 301 293 294 297 296 297 296 298 294 293 294 293 292 294 290 289 289 290 289 288 289 291 291 289 295 295 294 293 288 291 294 290 284 282 279 282 285 285 287 285 285 287 286 287 286 289 289 287 283 279 279 278 281 276 274 271 285 287 286 285 286 288 287 287 287 289 290 288 285 285 285 286 286
298 295 306 312 314 310 301 292 296 295 292 296 298 293 295 293 294 294 296 296 295 296 295 294 294 294 293 293 292 292 293 289 291 289 291 290 291 293 291 294 295 294 296 290 293 291 294 288 286 284 283 283 284 284 284 284 287 287 286 282 286 287 288 287 285 283 284 280 281 277 276 286 287 285 283 283 283 282 281 284 289 288 287 286 284 284 285 285
300 299 301 310 314 310 298 287 287 291 293 295 295 294 296 295 294 293 295 297 294 294 294 293 293 295 294 294 293 292 295 288 292 292 290 290 288 291 293 294 296 293 294 291 292 294 288 287 288 283 277 279 280 285 285 285 286 282 283 286 289 290 289 284 284 285 283 285 285 283 279 286 284 284 283 283 282 285 285 283 284 287 287 286 284 284 285 285
298 298 297 303 309 306 295 296 293 292 292 292 292 290 292 293 296 297 296 295 297 294 294 293 296 294 293 295 293 293 295 294 289 292 293 289 291 290 291 294 296 295 296 295 297 300 290 288 287 282 280 278 277 278 280 282 284 284 283 286 287 288 288 286 285 284 282 286 285 285 285 290 285 286 287 286 283 284 284 283 283 285 287 286 284 284 284 285
294 286 295 296 301 301 301 302 298 295 292 292 291 291 293 291 294 296 298 296 299 297 297 295 295 297 294 294 292 293 293 296 293 288 291 289 287 289 288 290 294 295 296 296 296 297 287 288 290 288 286 284 286 283 285 286 284 284 285 287 287 288 290 290 289 286 284 286 284 288 289 290 289 288 286 287 285 286 286 285 287 287 285 284 283 284 284 285
296 290 290 287 297 296 295 300 297 297 292 295 289 293 290 291 293 292 298 293 298 297 296 296 294 294 292 294 292 292 294 293 291 291 289 290 286 288 288 288 290 293 294 294 295 291 285 287 288 290 289 290 291 283 286 290 286 287 286 285 288 288 288 288 287 286 289 285 283 289 290 288 291 292 289 287 287 286 287 288 288 286 286 286 285 284 286 284
288 291 296 295 289 287 289 289 296 296 296 296 292 295 291 290 291 289 295 297 298 298 294 294 295 296 296 294 294 289 291 291 291 290 292 288 290 289 290 291 290 292 292 293 293 291 287 287 290 289 289 291 292 286 287 288 288 288 288 287 286 288 287 286 287 290 288 287 285 291 289 289 292 294 294 294 291 293 295 296 294 292 288 284 283 283 284 284
294 292 288 294 287 289 288 290 293 295 295 295 293 294 291 291 289 292 292 292 294 293 296 289 292 295 296 297 294 291 291 287 287 292 291 289 288 287 286 290 291 290 292 289 289 286 289 287 288 289 288 290 291 287 287 288 286 285 287 288 288 288 287 288 289 290 290 289 291 292 289 289 293 295 292 292 293 295 294 288 286 287 288 286 284 285 285 284
289 290 287 292 288 289 289 288 287 289 289 294 289 291 292 291 290 292 294 292 288 292 297 292 293 294 295 296 295 291 293 294 293 289 293 292 288 287 288 289 286 286 289 289 289 289 290 287 290 287 287 288 289 286 286 287 286 286 286 286 288 288 288 289 289 289 290 290 291 291 290 289 295 293 295 293 291 290 288 288 289 289 287 286 286 286 285 285
294 294 295 289 285 286 288 287 287 287 285 286 289 291 292 291 291 293 292 296 293 291 294 292 295 294 294 295 295 295 297 296 296 296 295 294 291 293 292 288 292 286 286 287 287 287 289 286 285 287 286 286 288 286 286 284 285 285 286 286 286 286 284 287 286 290 288 287 289 289 288 289 293 290 292 290 289 290 292 292 292 290 287 286 286 287 286 286
295 295 295 292 285 291 286 286 288 288 284 288 287 288 291 292 294 294 289 295 296 296 296 296 296 295 292 292 293 295 298 299 298 299 296 298 300 295 295 290 292 289 287 288 286 287 288 287 286 286 285 285 288 286 286 286 285 284 285 288 289 287 288 289 290 290 291 291 287 286 288 294 296 293 292 290 287 290 291 292 293 291 287 287 288 288 289 288
Wind_Speed
1 1 1 2 3 3 3 4 4 5 5 6 6 7 7 7 8 9 9 9 10 11 11 12 12 12 12 13 13 14 12 2 3 1 1 3 1 1 2 4 6 7 5 3 7 4 2 5 7 9 4 4 3 1 1 2 1 2 3 6 3 3 3 5 6 9 1 5 5 3 3 6 2 0 1 1 8 3 2 4 3 3 3 1 1 2 1 1
1 1 1 0 2 2 3 3 4 4 5 5 6 6 7 8 8 9 10 9 10 11 11 11 12 12 13 13 13 13 7 3 2 1 5 1 1 2 3 4 4 6 3 4 5 3 2 4 4 6 4 1 2 1 1 0 2 5 2 4 6 4 2 6 3 6 2 3 5 2 2 5 4 6 2 2 1 1 1 1 3 2 2 2 2 3 4 4
2 2 1 1 2 3 4 3 4 4 5 5 6 6 7 8 8 9 10 10 10 11 11 12 12 13 13 13 13 11 4 1 1 1 1 1 3 4 4 5 4 5 3 0 0 1 1 2 1 2 4 2 7 1 4 2 2 1 3 2 2 7 2 4 4 5 5 2 5 4 1 1 1 2 1 2 4 0 4 4 1 2 3 4 1 2 3 5
2 2 1 2 3 4 3 4 4 4 5 6 6 7 8 8 9 9 10 10 11 11 12 12 13 13 14 14 12 6 1 2 0 2 1 4 4 4 5 4 3 3 2 2 1 0 2 4 4 3 1 5 3 2 3 3 2 0 3 3 3 4 2 1 4 3 3 4 4 3 1 1 1 2 2 3 4 4 6 7 8 11 9 8 5 2 4 5
2 0 0 1 2 3 3 4 4 5 5 6 7 7 8 8 8 9 10 10 11 11 12 12 13 14 14 14 10 0 3 3 2 1 3 4 4 4 4 3 2 1 2 3 3 4 6 3 1 4 3 0 4 3 1 2 1 3 1 1 2 2 1 2 2 3 4 2 6 2 5 4 1 1 3 7 5 6 7 5 8 4 9 11 9 6 4 5
2 1 1 1 2 3 4 4 5 5 6 6 6 7 7 8 8 9 10 10 11 11 12 13 14 15 14 11 1 1 2 1 1 1 5 5 4 5 4 3 2 1 1 4 1 3 1 4 3 2 2 3 2 3 2 0 1 2 1 0 2 2 1 1 2 3 5 3 5 4 3 3 2 1 2 5 7 4 2 5 4 5 8 7 4 6 6 6
3 3 2 2 3 4 4 5 6 6 6 7 7 8 9 9 8 9 9 10 11 11 12 13 13 14 14 3 1 4 2 4 1 3 6 5 5 4 4 4 4 3 3 2 5 1 3 3 4 1 2 3 1 1 1 4 3 6 2 0 0 2 3 4 2 5 2 10 5 4 2 3 3 4 1 3 4 2 2 1 3 5 8 7 8 5 7 6
5 4 4 3 3 4 3 4 5 6 6 7 7 9 10 9 9 9 9 9 11 11 12 12 13 12 10 1 1 2 2 3 2 3 5 4 6 6 3 3 6 3 6 4 0 1 1 5 3 2 5 3 1 2 3 1 6 2 1 1 1 1 2 0 0 1 2 1 0 5 4 3 5 2 1 5 5 0 3 4 6 7 7 5 6 5 5 5
7 7 6 5 4 3 4 4 5 6 7 7 8 9 10 10 10 10 9 9 11 11 11 12 12 11 2 2 3 1 3 1 3 5 5 6 6 7 5 1 5 4 2 2 3 3 2 1 1 3 2 1 0 2 4 1 2 0 0 1 0 0 2 0 0 1 1 1 2 3 4 2 3 2 4 7 4 3 3 5 5 6 6 5 6 6 6 6
9 9 8 6 5 4 4 4 5 5 7 8 9 9 10 11 11 11 9 10 10 10 11 11 12 10 2 2 2 1 2 3 5 3 3 5 7 6 9 1 3 3 1 3 2 4 2 3 2 4 7 3 1 1 1 2 1 2 1 1 1 0 2 0 4 2 1 1 2 4 2 1 2 1 8 1 4 4 5 5 3 6 7 5 5 5 4 6
11 10 9 7 6 5 5 5 5 5 6 8 9 9 10 12 12 11 10 9 9 9 10 10 11 6 1 2 3 5 2 2 2 3 4 5 7 7 2 5 1 2 5 2 3 0 3 4 3 3 1 1 1 2 2 0 1 3 1 0 0 6 2 1 1 4 1 2 4 5 3 1 2 1 8 3 5 5 8 5 4 4 5 5 4 5 4 4
12 11 10 8 7 7 5 5 6 6 6 7 8 9 10 11 12 11 10 9 8 9 9 8 9 1 2 4 3 4 3 2 3 1 2 3 3 1 2 1 1 2 1 1 0 1 2 2 4 1 1 1 1 0 1 0 2 0 0 1 4 6 3 1 5 2 4 3 5 4 1 3 1 8 4 2 5 4 6 6 5 5 4 4 4 4 4 5
12 11 10 9 8 6 5 4 5 6 6 6 8 8 9 11 12 10 8 8 8 9 8 8 5 2 1 1 6 7 3 2 1 3 3 3 3 2 3 3 3 1 1 3 1 0 2 4 4 7 0 3 2 0 1 3 1 1 5 1 4 6 5 2 0 1 5 2 5 2 5 8 10 13 1 2 8 4 5 5 5 4 4 4 4 4 4 3
11 11 10 9 8 6 6 5 5 5 6 6 7 8 9 11 10 9 7 8 10 8 8 7 2 1 2 3 4 2 3 1 1 4 1 1 3 3 3 4 4 3 1 5 1 1 1 1 6 6 2 3 1 0 2 3 4 1 1 3 0 3 4 2 0 2 5 1 4 1 4 8 6 7 4 4 6 11 9 7 6 6 5 5 5 5 6 6
11 10 10 10 8 7 6 5 5 5 5 7 7 8 10 11 10 8 7 8 9 8 7 4 2 1 1 5 3 6 4 1 2 1 0 2 2 1 1 3 4 5 1 4 1 1 1 2 3 3 1 1 1 1 2 3 4 2 1 3 3 3 5 7 2 6 6 0 0 2 3 11 8 8 2 5 5 5 9 7 7 7 6 6 5 6 6 6
11 10 10 10 9 7 6 5 5 4 5 7 7 9 10 10 9 9 8 8 10 7 1 0 3 4 3 3 1 2 2 1 1 1 0 2 2 0 1 2 1 5 3 2 2 1 5 7 7 1 0 1 6 6 4 3 2 5 1 4 1 1 5 9 0 1 1 2 1 5 7 4 5 3 2 3 5 5 5 6 7 8 8 7 7 7 5 5
11 10 10 9 9 8 7 6 4 4 5 5 8 9 10 8 8 10 10 8 4 1 0 1 0 0 1 2 0 1 3 3 3 1 2 1 1 3 3 2 2 1 3 3 8 4 6 5 3 1 4 3 3 5 2 3 5 3 2 3 4 2 2 2 5 1 1 3 4 2 2 8 4 2 1 1 5 5 7 8 8 8 7 7 6 7 7 8
11 11 10 9 9 8 7 4 3 4 5 6 8 9 7 10 7 6 4 4 1 1 1 1 2 1 7 1 2 4 0 1 1 2 4 1 3 3 3 1 0 3 3 2 5 2 3 1 4 4 1 2 1 3 4 6 7 3 2 2 6 1 3 5 1 1 4 1 3 1 5 12 13 7 4 6 5 7 11 12 8 7 8 8 9 8 9 8
12 11 10 9 9 8 5 4 3 3 3 7 10 10 7 2 2 1 4 2 2 2 0 3 4 5 3 4 1 3 1 3 2 4 2 2 2 3 4 3 4 4 0 2 2 1 2 4 4 4 3 1 5 9 9 10 6 3 7 5 3 2 3 3 7 3 6 4 5 5 8 11 14 14 7 6 7 10 13 5 5 7 8 9 10 10 9 10
12 11 11 10 8 8 6 5 4 2 3 3 4 3 2 1 2 1 2 1 4 5 2 3 2 1 0 2 2 1 1 3 5 2 1 1 4 2 4 2 3 6 4 4 1 1 1 4 5 7 10 11 7 10 11 4 5 4 3 2 4 4 6 4 4 5 1 0 8 9 9 10 11 11 12 5 4 6 8 9 10 10 9 11 11 12 12 11
12 12 11 10 8 8 7 7 4 2 0 2 2 1 3 6 5 4 3 6 5 2 1 2 4 1 0 0 0 4 4 1 2 0 2 1 2 7 2 2 2 2 1 2 5 1 4 3 7 10 13 9 9 7 2 4 1 1 1 2 5 3 8 5 2 1 1 4 4 4 6 11 13 13 13 1 5 11 13 13 13 13 13 12 13 14 13 10
14 13 11 11 10 9 8 7 4 3 3 1 0 2 1 2 0 1 2 3 4 11 7 4 2 3 2 3 2 2 4 2 1 1 1 2 4 8 2 4 4 9 1 3 3 2 2 9 10 15 1 4 2 5 4 5 3 1 3 2 2 8 5 9 6 2 1 3 9 4 6 10 12 13 11 7 11 10 11 15 16 16 15 14 12 13 9 6
14 13 12 12 11 10 10 8 5 4 2 1 3 1 3 2 2 2 1 3 4 2 5 5 5 6 5 4 1 1 1 4 8 5 5 2 3 4 6 4 5 3 2 5 9 4 2 5 18 3 5 4 1 3 4 1 0 4 1 1 9 3 1 7 1 2 1 4 3 1 4 9 10 10 13 13 11 11 10 12 16 13 14 15 16 15 14 14
15 14 13 13 11 11 10 8 4 3 3 3 2 5 3 1 1 1 0 2 2 4 4 5 7 4 7 4 4 6 4 3 4 7 3 6 9 3 4 5 5 4 9 8 9 12 12 3 1 8 6 7 5 3 5 4 6 4 6 5 4 4 7 8 5 2 1 2 1 5 8 9 10 14 11 9 5 7 11 7 11 13 12 10 5 7 13 16
16 15 15 13 12 12 9 7 2 3 2 2 9 9 7 4 1 2 1 3 1 4 1 2 4 3 5 2 2 6 2 1 5 3 6 8 6 4 4 1 4 6 6 9 4 4 9 6 3 6 5 5 4 3 7 8 7 3 6 11 10 7 7 5 4 4 5 4 2 1 6 6 6 9 13 4 2 5 8 9 16 15 11 9 12 15 9 8
16 16 16 15 14 13 13 4 4 5 4 6 4 4 10 5 2 1 3 3 5 3 2 5 4 5 6 3 4 4 4 5 5 4 9 6 2 4 2 1 2 9 6 5 6 4 6 1 5 6 6 5 5 5 4 8 8 1 7 10 12 9 6 3 2 2 3 4 2 1 5 10 1 9 7 4 4 11 8 6 14 11 12 11 15 12 9 10
17 17 16 16 16 16 7 6 2 9 2 8 5 4 4 4 2 0 1 3 6 5 8 1 2 2 0 3 8 5 3 8 0 3 6 2 9 0 5 5 2 2 3 3 3 8 2 3 4 3 5 6 5 6 5 12 6 5 2 4 5 5 6 7 5 7 6 1 4 1 2 8 12 11 4 7 8 11 10 12 13 14 13 12 12 9 8 10
18 18 19 20 20 19 2 4 9 7 6 1 1 6 4 5 4 1 3 1 5 3 2 3 2 2 2 4 12 12 2 2 5 4 1 1 2 1 1 7 10 10 4 5 11 1 6 5 5 4 3 4 9 6 4 9 8 4 0 6 5 7 6 3 3 3 1 3 9 2 1 5 7 6 3 1 5 6 13 14 15 16 12 11 10 9 10 11
19 19 19 19 21 21 5 6 6 9 2 1 4 6 6 5 2 5 3 4 1 2 3 4 4 2 2 3 6 2 1 4 1 1 1 2 2 2 4 5 4 5 5 11 13 1 2 6 10 10 8 8 5 3 8 12 5 2 5 7 7 7 6 3 3 2 2 0 7 4 2 4 18 5 2 3 2 7 10 14 16 16 9 7 9 10 8 7
18 18 19 20 16 13 6 2 7 3 4 4 6 7 8 5 2 2 2 7 1 3 1 0 2 6 4 12 7 1 2 1 2 1 2 3 1 1 1 3 4 3 4 4 5 5 1 3 4 5 7 4 4 1 4 7 3 6 4 7 5 8 4 3 6 2 2 6 9 7 7 8 13 3 8 8 8 10 11 9 9 8 4 4 7 8 9 10
17 22 22 21 12 9 6 8 12 3 3 4 6 9 8 7 4 5 9 5 3 1 2 1 3 5 11 13 7 2 2 0 1 4 3 0 1 2 0 3 3 4 1 3 8 2 0 1 1 1 4 3 4 4 4 1 4 6 2 3 4 2 6 3 4 4 1 10 3 7 11 10 13 3 4 7 3 3 7 8 10 9 5 5 5 6 8 8
15 16 19 18 8 9 15 13 9 7 6 8 9 3 5 5 3 9 7 4 2 5 9 5 0 5 13 6 6 12 11 1 3 6 11 8 7 10 10 11 7 3 5 10 9 3 6 6 2 3 4 9 3 6 3 3 1 3 5 7 5 4 5 3 3 3 6 9 0 3 2 3 18 14 4 6 10 7 8 10 10 8 7 6 5 7 6 6
15 20 23 18 11 10 11 4 12 8 6 7 7 7 6 5 12 8 6 7 4 4 4 3 6 8 9 6 6 4 3 9 2 3 4 1 7 11 5 5 5 5 7 3 6 1 7 1 1 2 2 5 8 8 3 1 5 5 8 7 6 1 1 6 5 2 7 7 3 2 1 9 2 7 12 16 15 13 8 10 10 8 8 7 6 5 6 7
10 17 14 13 13 13 9 9 10 13 10 8 9 5 3 8 6 7 14 10 2 2 3 3 4 2 11 11 6 10 4 3 8 4 5 6 7 8 9 8 4 4 4 2 9 9 5 6 7 8 6 6 10 13 14 6 10 12 4 12 10 9 7 4 5 6 8 5 3 5 1 8 3 3 3 8 5 7 5 7 6 6 7 6 4 4 5 6
5 9 10 10 12 8 6 8 12 13 11 10 7 10 11 8 2 10 11 9 0 2 2 1 7 7 5 3 2 6 4 4 4 6 5 8 9 7 9 12 11 4 2 4 4 3 11 7 6 9 1 9 13 3 7 6 2 3 2 5 2 9 6 6 5 3 1 2 4 2 7 3 5 3 6 3 5 6 7 10 6 11 8 4 3 5 7 8
2 1 7 5 9 8 9 8 12 14 12 11 11 8 12 12 10 6 6 7 1 4 4 5 3 4 5 5 3 8 3 2 3 4 2 6 2 8 6 4 12 17 10 11 4 4 2 5 1 2 5 7 8 3 3 4 8 4 6 7 6 2 5 0 3 1 1 2 13 4 10 7 8 9 11 13 6 9 5 6 6 12 9 1 6 6 6 7
2 1 4 4 9 8 11 11 13 12 10 13 9 11 11 5 3 4 4 16 13 12 6 9 5 8 7 9 6 5 6 5 3 6 6 2 5 6 4 6 4 10 14 9 2 3 7 6 1 4 5 1 0 0 3 4 4 8 4 8 2 2 3 3 6 2 2 5 8 5 11 8 2 14 2 1 7 12 6 10 10 8 5 6 11 6 7 9
2 2 3 8 11 11 13 13 15 13 11 10 11 13 3 6 2 5 0 4 6 5 8 11 3 10 5 8 8 6 2 8 5 5 4 6 6 6 8 2 7 13 17 4 5 3 3 7 1 1 1 4 2 2 2 2 2 6 5 6 8 4 3 2 4 6 1 5 7 4 2 9 9 12 1 2 9 12 14 13 7 9 8 12 10 4 5 5
1 1 5 8 10 13 11 10 11 12 8 10 11 12 6 12 9 4 4 5 4 9 11 8 8 6 8 9 5 5 11 10 9 9 6 4 6 5 15 11 6 12 12 11 6 2 1 5 3 1 3 1 1 4 10 3 2 2 3 4 1 3 1 6 8 3 5 5 1 9 5 15 6 8 8 12 13 11 11 8 9 12 12 12 7 5 7 9
4 3 7 3 13 14 14 15 10 10 9 15 10 11 1 9 4 4 5 11 4 8 8 10 9 4 6 6 9 7 7 8 11 10 7 4 10 2 6 8 5 4 9 15 10 5 4 3 8 1 2 2 4 6 10 12 10 2 3 5 1 0 2 4 1 4 4 4 4 4 11 11 3 6 8 9 11 13 10 10 9 11 13 8 2 6 8 9
3 4 3 5 13 13 13 8 9 14 12 7 9 8 1 1 4 4 7 4 3 2 3 7 9 12 7 6 4 4 6 9 6 7 6 4 9 4 7 8 6 5 4 7 9 4 3 3 9 2 0 7 5 3 5 8 13 14 15 13 15 10 5 4 8 2 2 3 7 4 14 13 4 2 8 7 3 5 8 9 11 9 6 4 3 5 8 8
7 7 4 7 11 17 14 16 10 7 8 12 13 11 6 4 1 2 4 1 2 2 3 2 3 7 6 9 10 7 5 7 8 8 5 10 9 9 3 12 10 13 14 10 15 11 6 3 4 6 7 9 5 0 2 3 0 2 3 7 8 9 6 6 8 7 0 5 4 3 2 18 4 4 4 5 6 4 3 5 9 7 6 4 4 5 6 7
6 8 2 11 14 17 11 10 8 9 8 6 2 3 2 3 3 2 5 3 5 3 1 3 6 8 6 5 6 6 11 6 11 10 6 9 8 13 4 13 9 10 7 1 3 1 5 3 4 3 1 2 3 4 1 2 2 2 1 2 6 10 10 10 7 5 9 3 6 3 1 18 2 0 1 2 5 2 4 4 8 6 5 4 4 4 6 5
6 8 2 3 14 15 12 12 9 11 8 2 5 4 5 3 5 3 5 7 6 3 4 2 2 3 2 2 2 8 12 6 5 11 9 5 6 6 8 11 16 10 11 9 11 8 6 4 8 3 1 1 3 2 2 2 1 3 4 6 10 9 8 1 4 2 4 11 11 10 12 17 0 3 2 2 2 2 4 4 5 6 6 4 4 4 4 5
4 2 4 4 9 12 13 11 12 12 12 9 5 8 5 3 4 8 9 6 4 3 4 5 5 4 3 2 3 1 5 13 3 7 5 2 6 1 2 11 14 11 9 5 8 10 4 6 8 10 13 12 9 10 14 12 12 4 2 5 6 11 13 5 9 6 8 11 11 10 15 11 1 2 2 1 1 4 3 4 5 6 6 4 3 4 5 7
4 6 2 5 7 12 13 11 11 10 11 13 12 10 11 10 4 7 7 5 9 4 4 2 1 6 5 6 5 6 8 7 10 2 8 6 3 1 3 3 12 10 10 11 10 12 5 4 11 14 15 16 15 2 2 10 6 7 12 14 13 12 13 13 8 7 15 6 7 17 21 15 8 1 3 5 2 4 3 2 6 5 5 4 4 5 6 8
2 6 3 4 4 11 8 11 11 9 12 11 11 7 15 16 10 1 10 5 8 9 4 5 3 7 2 8 11 10 9 8 1 1 4 8 1 2 3 3 4 8 1 4 8 8 3 4 11 16 18 17 13 3 6 15 13 16 12 11 15 13 14 15 14 18 7 7 14 20 11 12 26 14 8 4 4 4 7 9 8 6 6 6 7 5 5 5
8 3 2 2 3 6 10 10 11 15 13 14 10 8 15 16 15 9 5 13 5 9 7 0 4 9 11 16 12 10 10 10 7 11 8 3 2 1 1 1 5 2 2 1 1 3 5 8 9 10 15 17 14 6 8 6 10 12 15 15 16 17 14 18 22 19 10 15 20 18 11 17 24 17 9 9 5 7 12 15 10 7 5 3 4 5 6 8
3 2 3 1 1 3 2 4 5 14 19 17 8 13 12 17 18 15 9 7 8 4 14 8 13 17 15 12 10 9 10 8 10 12 11 9 8 4 3 1 4 2 5 3 2 1 3 7 6 8 14 14 15 6 5 9 4 3 10 15 17 19 22 24 23 21 17 17 19 20 5 12 18 16 2 6 8 14 11 1 1 3 6 6 5 6 8 9
6 7 5 2 4 5 3 1 0 4 11 16 14 12 12 15 19 15 10 11 9 12 13 19 18 18 18 14 13 13 15 18 15 14 10 10 4 4 6 7 3 2 1 5 4 2 4 5 4 5 7 13 15 4 5 9 6 7 8 9 14 18 22 24 21 17 14 15 18 17 15 18 22 1 7 7 7 2 4 6 7 8 6 7 8 8 9 10
1 3 2 1 2 3 3 4 4 3 6 4 11 12 11 13 17 16 15 14 18 14 15 21 22 16 14 18 15 16 16 17 18 18 14 16 15 12 11 5 7 6 5 2 1 1 4 4 2 3 8 12 10 9 10 5 5 6 7 11 17 18 14 11 12 15 13 18 20 15 17 22 15 7 7 2 3 6 10 11 11 10 9 6 7 10 10 11
3 0 2 4 4 5 6 1 3 3 8 5 6 8 8 14 13 12 9 8 12 13 14 20 21 15 11 14 19 21 22 19 19 16 6 9 9 3 2 1 3 4 5 7 2 5 6 5 4 5 10 13 8 10 9 6 2 8 13 22 23 11 9 9 13 13 18 18 13 15 22 21 20 8 6 6 5 9 11 11 13 10 6 9 10 11 12 12
Wind_Direction
178 150 85 71 59 51 42 31 24 22 18 19 17 16 14 11 9 7 4 1 358 356 352 349 348 342 339 342 344 347 354 70 23 39 70 237 99 222 326 340 340 324 346 29 19 48 338 8 4 340 28 57 317 44 287 51 63 55 64 115 88 192 144 203 175 187 215 140 217 189 196 114 154 304 194 45 37 69 22 54 319 359 20 265 288 339 333 108
177 222 218 57 60 65 58 45 36 26 20 12 13 10 11 9 6 1 2 359 356 354 351 348 343 343 341 342 347 348 9 49 38 41 225 72 307 8 16 3 351 334 314 37 55 68 72 335 327 27 41 48 333 317 18 334 77 88 120 88 181 189 224 149 204 201 121 235 170 188 143 142 200 142 215 117 300 54 70 350 19 356 342 25 28 2 59 106
173 175 194 33 37 33 35 35 29 22 20 15 10 12 11 7 5 2 358 357 354 353 351 345 343 341 343 340 338 349 352 7 34 263 271 41 357 4 16 8 16 16 55 109 198 126 110 234 276 59 7 97 6 294 32 326 53 183 111 90 244 204 231 201 179 205 209 131 150 160 193 163 206 139 149 213 173 46 191 184 315 231 229 208 268 50 72 104
175 171 64 12 7 9 11 16 13 14 12 15 9 6 5 4 1 360 357 355 354 352 348 346 344 344 341 336 340 331 65 62 297 251 291 323 348 12 16 11 38 49 57 64 162 109 135 73 60 76 32 63 312 45 47 320 64 244 68 158 199 183 112 226 169 233 213 160 149 138 93 137 250 211 159 161 105 257 257 223 172 199 198 197 199 157 117 122
183 145 67 3 357 355 3 1 4 8 5 5 9 2 0 357 358 356 356 354 353 350 349 346 347 344 337 337 334 2 57 64 234 248 296 343 10 15 14 26 46 61 90 149 85 46 75 81 83 37 76 220 5 11 66 326 103 86 67 211 168 132 67 231 190 150 128 159 102 108 122 205 65 66 117 149 173 226 212 229 214 202 176 172 174 178 134 135
214 212 284 314 335 2 350 352 356 359 0 359 5 0 356 355 354 352 351 353 351 350 349 351 348 342 337 338 51 61 76 68 259 332 346 338 16 19 10 24 57 89 132 49 101 21 60 354 63 26 8 60 331 98 298 196 335 90 321 320 209 197 148 232 155 205 144 120 123 150 207 89 136 239 192 175 204 228 255 252 239 187 169 154 125 139 140 148
214 221 238 309 318 323 348 346 342 353 352 357 360 359 351 353 346 348 346 349 350 351 352 351 348 341 335 24 26 84 112 270 10 280 7 355 5 25 16 20 53 50 64 56 17 65 31 61 72 116 86 66 302 79 343 315 16 104 163 341 262 190 203 172 165 133 159 122 194 204 74 169 142 226 135 207 244 262 331 9 147 126 121 133 137 166 160 165
219 236 245 243 269 286 308 337 337 335 344 348 352 353 354 349 347 342 345 345 350 352 353 351 346 340 354 42 40 4 35 253 282 332 331 351 11 344 42 39 36 63 54 70 6 66 98 41 110 162 62 131 207 120 329 2 22 82 75 228 269 146 259 352 48 103 137 159 102 115 139 231 175 189 93 247 237 104 55 84 101 114 117 123 138 156 155 152
212 220 228 236 245 263 294 314 324 326 337 340 343 345 348 346 345 342 341 344 348 350 353 352 345 342 331 80 112 45 274 245 215 313 8 27 345 11 24 303 21 76 128 60 23 142 121 263 106 188 233 128 170 94 338 119 323 148 190 136 340 319 336 30 49 291 200 109 111 103 232 301 246 303 237 233 190 167 109 89 112 119 123 148 162 167 163 164
206 217 225 233 236 254 262 278 306 317 324 328 332 338 340 343 341 342 338 341 344 349 350 352 352 331 56 83 46 77 260 289 321 349 27 50 21 33 41 60 46 76 93 330 43 58 83 203 136 175 126 88 95 48 252 76 233 143 126 145 131 346 351 29 189 244 241 271 204 176 234 254 350 109 269 32 183 135 108 116 127 139 157 167 167 174 179 164
205 212 220 226 234 243 260 273 279 299 310 317 324 330 338 338 339 340 338 334 340 342 350 352 356 9 72 75 114 220 260 24 12 355 25 49 48 52 6 351 43 71 98 25 79 244 128 148 164 130 48 218 107 329 75 229 160 39 108 46 358 339 263 229 340 275 73 273 173 182 225 265 299 92 234 196 186 162 141 152 159 164 168 176 178 180 187 184
204 210 216 221 227 238 257 268 276 288 304 311 320 328 331 335 337 333 335 328 328 340 345 347 9 50 82 71 145 213 324 253 321 355 30 34 67 92 233 4 31 151 158 150 329 286 181 149 113 65 206 164 42 19 55 209 71 262 35 337 299 357 349 222 203 233 154 253 154 160 334 268 187 231 245 248 145 156 149 166 181 183 190 187 189 183 185 196
203 206 211 217 224 236 255 278 279 282 288 302 318 327 331 335 336 334 326 333 324 334 338 344 6 55 91 356 237 237 286 298 60 76 40 54 109 75 72 52 89 93 149 133 171 263 169 134 112 82 193 99 161 96 195 72 339 115 38 97 335 356 328 303 230 42 145 246 156 165 272 254 235 235 269 156 148 128 141 187 198 201 197 202 196 197 202 219
199 202 206 211 216 227 247 275 302 284 289 306 314 322 329 330 334 335 332 314 320 325 334 342 56 54 86 238 268 251 288 253 95 59 51 335 93 330 17 4 53 51 58 98 80 137 104 177 101 119 132 81 130 325 45 338 21 156 258 61 196 11 273 288 93 169 151 206 167 72 223 274 269 281 259 177 168 161 188 201 206 206 206 207 208 202 207 217
200 200 204 206 211 219 233 258 286 293 284 296 310 322 325 322 323 320 318 313 308 323 334 35 20 53 74 267 252 298 271 111 49 244 292 107 105 28 358 4 25 10 52 87 129 74 131 66 64 41 50 279 35 73 2 27 0 20 48 286 325 157 277 295 237 163 169 336 84 119 272 258 268 266 292 187 180 176 198 203 209 210 209 210 210 211 213 218
201 200 201 204 208 214 225 242 255 279 285 290 314 320 314 310 310 309 307 288 286 322 343 77 360 102 100 298 235 354 38 142 233 238 291 114 92 183 195 113 349 15 31 4 54 72 41 84 70 176 205 11 57 90 45 29 335 352 117 268 262 101 265 336 352 260 54 114 359 175 230 329 311 300 312 174 179 195 212 223 220 220 218 213 213 214 214 222
206 202 199 200 204 209 220 232 236 256 282 303 316 309 302 295 306 310 296 292 292 291 109 165 157 116 194 248 46 315 233 247 280 56 56 36 101 157 94 37 14 359 10 31 19 49 356 62 288 19 32 111 128 98 75 360 314 293 26 218 204 184 255 261 301 273 241 139 204 256 229 242 229 298 47 202 184 192 225 234 226 222 222 219 219 217 215 215
208 207 204 203 205 208 219 224 245 276 288 308 296 299 298 303 334 0 15 32 38 111 66 129 132 69 281 13 215 235 220 168 119 157 79 327 110 81 86 88 19 65 39 34 354 74 333 72 35 182 4 27 106 70 129 228 197 210 204 281 292 267 206 248 329 262 127 299 203 229 243 265 271 268 213 208 191 194 225 224 225 223 223 222 221 219 219 217
207 208 206 202 205 210 210 216 240 279 299 307 313 300 281 337 73 93 64 360 86 23 45 215 153 161 208 236 315 55 124 233 99 115 191 100 44 96 68 83 77 119 93 78 250 98 351 65 29 46 212 187 210 180 180 216 154 187 168 184 178 221 242 205 239 274 176 195 233 207 220 246 260 271 248 214 195 203 229 243 257 235 226 227 223 223 217 217
205 206 209 209 207 205 199 210 228 271 322 353 347 2 49 35 13 337 342 22 226 183 176 222 219 235 82 12 144 283 251 53 116 316 67 286 110 68 32 63 33 60 109 178 301 135 102 133 166 192 219 214 206 192 203 187 138 106 102 121 214 219 275 277 268 260 258 58 231 223 231 242 257 255 263 201 188 232 247 244 239 235 226 224 226 221 220 217
204 204 206 203 202 203 196 206 200 224 209 61 346 72 171 177 123 252 222 246 257 245 205 282 212 172 254 258 283 151 118 319 60 201 193 121 104 117 216 73 47 169 290 188 144 297 63 137 235 221 222 205 203 202 134 91 105 162 122 175 274 164 251 233 243 358 327 172 292 247 239 250 250 258 260 188 174 226 223 233 239 236 228 227 223 224 218 214
202 200 198 198 195 199 199 200 191 187 133 201 24 182 257 210 219 225 122 268 264 247 234 230 3 308 350 208 248 152 77 80 293 247 271 142 177 150 260 125 161 190 192 115 53 96 162 199 227 229 158 101 99 164 189 186 187 93 194 230 286 264 252 276 260 261 267 138 255 257 236 252 254 254 263 225 214 231 219 217 226 223 227 228 224 225 214 182
197 195 195 192 192 194 203 190 190 161 86 170 224 211 232 236 304 252 89 120 280 282 213 210 242 236 271 292 260 132 181 176 193 212 202 137 124 215 150 131 175 124 122 168 162 155 240 282 242 205 124 113 69 107 137 122 76 189 150 154 233 232 78 294 307 7 221 175 265 39 307 278 276 258 250 248 220 238 232 224 237 227 227 225 220 212 204 205
197 190 189 189 183 184 192 184 161 121 204 224 229 206 239 188 34 6 92 246 280 296 197 221 198 182 206 163 209 145 173 235 113 202 244 141 161 176 125 172 143 130 183 191 180 178 201 213 298 150 157 163 182 136 125 149 232 240 199 208 234 211 230 194 250 313 311 316 49 306 288 277 247 265 265 254 249 250 257 240 250 247 238 242 249 226 212 206
196 188 183 183 179 171 173 126 165 208 125 188 253 237 244 223 47 352 73 338 356 289 263 339 146 228 204 48 97 158 238 310 219 202 173 152 142 114 217 153 105 204 185 202 214 272 274 260 80 112 164 183 140 135 193 157 231 287 228 202 217 215 230 264 318 359 3 328 339 73 318 272 261 246 252 281 351 245 251 230 245 241 235 230 232 229 210 213
197 188 180 176 171 161 136 150 226 137 139 217 211 207 221 218 221 24 92 78 282 259 19 245 144 254 133 198 121 159 78 244 208 193 151 196 108 142 86 190 148 210 192 154 200 217 217 186 142 164 154 170 181 191 225 162 201 198 270 197 215 216 215 225 238 93 284 244 289 25 220 282 265 273 247 248 235 253 263 231 253 251 240 224 229 227 202 196
195 189 177 171 165 146 142 219 135 122 136 261 207 205 190 168 114 58 95 6 299 192 170 269 139 262 305 196 142 115 176 251 42 105 139 246 181 300 142 197 55 19 146 159 25 261 119 210 127 90 120 151 174 213 240 175 151 232 251 167 192 194 201 224 190 189 237 263 299 35 135 266 291 269 229 210 204 238 264 266 258 251 241 230 230 221 204 191
198 186 180 174 166 165 210 126 139 167 206 208 187 147 130 135 119 123 82 20 269 106 120 233 217 357 80 189 158 166 212 158 121 233 110 179 108 353 150 198 182 176 180 117 215 283 153 182 180 163 154 156 195 205 178 154 152 217 247 147 166 185 201 156 155 193 232 22 284 311 341 305 236 267 338 106 216 263 257 255 255 252 239 229 230 221 209 196
199 192 183 176 170 176 157 164 174 204 205 146 109 125 112 111 112 103 129 205 229 80 261 89 267 61 14 87 186 87 125 353 158 325 314 63 26 140 205 214 172 177 208 181 219 229 294 172 202 175 158 207 216 224 154 161 199 255 121 85 80 76 67 112 97 117 318 6 252 211 171 237 275 205 154 348 205 235 241 246 249 251 250 221 222 222 208 195
194 194 184 179 170 181 192 118 208 209 108 126 129 117 116 104 71 87 104 231 82 237 146 194 155 192 144 151 203 54 153 349 54 85 41 153 185 41 15 149 123 133 226 295 284 201 253 292 166 131 200 198 124 34 176 182 155 127 89 74 25 42 36 27 66 83 24 259 246 212 207 179 283 177 182 154 208 197 229 258 269 273 266 245 225 211 199 194
196 196 186 173 186 183 135 210 205 122 130 114 124 128 110 30 151 155 212 212 55 175 44 169 189 102 147 154 183 289 80 51 113 156 135 75 74 63 16 30 42 68 15 330 269 334 339 21 147 247 97 98 101 80 26 85 142 135 105 123 61 342 12 33 342 40 182 264 216 208 202 177 233 282 264 231 266 238 211 233 255 272 271 259 231 219 203 190
222 205 187 184 168 132 185 214 148 131 141 136 117 109 109 155 328 199 204 49 285 204 165 192 256 163 179 180 148 172 177 75 184 169 166 179 164 174 209 186 151 122 269 215 255 45 259 221 243 335 213 132 123 86 7 42 92 89 93 89 128 249 33 290 26 256 200 246 288 22 123 348 241 244 235 269 254 253 222 223 241 259 270 250 234 218 201 182
203 198 195 194 166 196 207 102 133 131 133 142 134 140 163 181 208 187 240 152 253 121 241 92 171 161 166 145 210 172 46 179 167 191 133 154 161 223 233 197 211 146 208 204 208 73 271 301 259 245 61 237 144 156 182 62 215 142 158 152 134 215 219 255 271 266 305 294 282 11 80 253 314 286 209 233 237 233 227 231 242 245 254 250 233 210 189 185
217 207 200 193 198 201 177 146 140 141 152 152 145 167 229 193 224 187 205 209 183 345 86 111 101 81 159 175 205 151 179 239 154 206 167 168 175 206 230 239 184 247 92 111 174 187 241 302 245 138 242 179 182 201 184 162 161 200 127 165 184 156 163 209 200 224 234 231 286 279 114 235 114 246 284 257 284 289 258 252 253 257 248 253 252 197 179 180
253 226 199 198 209 204 155 162 150 151 153 147 163 172 192 212 181 187 210 216 312 45 25 50 123 137 221 316 304 201 136 200 184 130 181 154 200 206 191 206 215 142 160 160 246 81 209 234 265 203 299 156 188 215 111 93 81 223 169 67 103 219 133 232 207 177 268 333 334 211 213 196 184 270 292 246 287 293 266 260 258 269 250 239 225 188 192 193
71 273 189 196 207 191 161 164 155 154 158 169 166 188 206 184 199 174 220 168 157 133 132 52 74 131 213 211 343 197 266 130 200 123 237 217 247 204 217 206 194 189 162 194 161 166 58 278 284 329 48 175 189 124 184 142 203 210 113 206 210 177 144 207 31 38 93 39 255 129 276 265 299 271 236 243 247 257 267 280 274 257 265 248 243 213 199 191
216 139 213 181 212 171 171 168 157 161 173 174 183 206 211 228 204 154 176 178 185 137 136 149 221 166 186 211 203 193 222 79 191 145 222 136 281 205 216 237 168 190 212 164 295 195 155 236 297 113 219 299 240 159 101 23 138 98 186 227 139 105 93 150 227 351 64 212 270 137 245 286 56 283 3 54 224 250 261 256 242 261 300 266 248 214 191 191
182 229 243 206 198 176 176 172 162 170 175 184 205 208 174 224 227 180 203 115 78 149 168 196 237 167 208 181 211 179 226 178 198 180 204 183 239 194 177 198 204 190 207 201 189 262 140 272 290 303 147 308 350 115 34 354 16 142 196 188 128 235 251 289 92 255 201 260 276 284 261 261 190 248 87 213 203 233 240 243 254 268 255 245 248 196 194 190
188 324 262 217 159 165 166 154 180 177 195 199 197 214 206 223 200 197 177 183 170 162 200 209 189 214 172 190 180 169 162 189 173 194 158 220 213 199 188 177 230 206 197 174 204 222 79 186 295 326 136 311 24 125 203 184 10 52 77 140 45 103 168 138 200 178 127 258 44 286 57 275 156 227 189 226 205 216 224 235 241 242 248 244 236 183 187 195
189 221 245 161 156 160 155 164 188 209 195 203 192 226 111 221 196 205 187 179 209 162 213 209 205 172 199 210 165 163 217 205 169 194 193 208 200 291 185 199 170 173 180 182 202 142 223 157 251 297 314 98 189 195 206 162 172 155 133 195 179 2 249 113 10 148 170 179 181 278 301 261 239 201 180 209 205 212 205 218 229 241 244 258 214 185 196 200
187 226 264 159 157 149 150 165 206 204 210 215 225 225 197 228 172 213 209 257 205 316 183 205 178 207 182 163 249 205 178 188 188 194 197 226 186 241 205 179 162 150 133 178 209 177 190 166 211 123 252 217 246 252 197 191 190 180 181 196 184 143 162 162 246 58 122 127 242 168 256 275 255 171 201 201 218 238 198 204 226 241 264 296 215 202 199 200
176 223 216 155 146 142 148 188 204 200 214 202 210 195 221 136 57 236 173 327 178 194 346 144 229 211 175 198 189 193 153 189 194 195 225 210 213 213 252 184 184 150 146 178 199 204 161 150 104 200 210 198 213 241 237 220 41 200 177 230 183 188 163 175 207 224 87 239 105 189 82 271 145 196 182 253 160 239 241 186 243 250 255 259 228 213 208 198
208 233 6 152 159 151 150 217 209 207 210 217 85 35 62 341 170 221 183 199 200 152 177 207 197 194 239 189 190 177 178 206 182 203 205 221 234 204 213 178 142 160 144 29 33 301 109 137 183 264 337 317 319 300 355 139 146 310 279 137 146 193 194 200 201 175 183 180 214 227 158 263 353 322 265 250 287 231 265 206 242 265 270 256 219 197 200 190
216 220 215 234 174 161 165 203 205 219 220 218 199 206 172 197 172 179 214 208 185 152 197 182 344 223 213 83 128 197 183 223 217 204 231 207 242 235 164 173 156 174 168 204 179 188 147 243 184 174 2 352 349 339 300 333 60 206 175 201 197 199 197 172 84 81 210 205 197 179 232 254 260 313 255 301 334 284 267 253 214 253 263 244 226 203 197 186
298 270 216 183 197 181 198 189 209 205 215 222 188 199 181 215 210 211 196 211 170 190 172 233 190 152 196 151 183 23 229 212 212 237 235 193 229 12 262 181 192 184 209 188 144 161 169 161 158 195 208 212 213 199 210 202 199 194 240 193 201 179 193 161 222 201 228 233 166 210 239 234 336 303 286 304 337 305 263 251 277 225 256 255 216 195 190 184
203 258 173 196 222 205 211 208 212 204 211 213 218 213 205 216 202 205 182 227 194 187 204 120 48 151 179 164 180 201 223 235 214 218 183 230 246 305 260 216 203 206 205 151 155 153 181 189 187 198 211 220 225 226 44 103 92 185 213 186 202 203 196 202 211 206 221 221 165 225 230 256 263 162 234 248 284 240 285 306 257 257 256 247 220 199 195 192
318 231 178 219 178 243 221 201 207 206 217 189 223 162 210 212 207 199 188 223 198 198 204 179 171 171 214 187 203 213 207 219 159 215 237 218 257 230 311 196 295 314 27 137 172 118 102 190 208 211 219 228 233 162 200 146 174 206 193 200 206 192 194 196 203 224 175 92 242 239 218 250 257 232 225 237 257 282 263 263 264 256 255 232 215 204 194 197
229 256 262 256 182 208 209 245 212 211 217 200 216 177 211 206 209 213 174 221 197 194 193 242 216 216 192 197 188 210 195 217 184 220 220 257 192 253 300 254 192 203 129 218 137 141 159 202 212 201 229 235 236 146 183 178 182 190 195 198 198 200 196 202 217 221 140 212 229 246 147 225 253 251 227 235 192 238 248 247 246 248 255 196 168 182 196 203
226 321 228 303 161 305 323 336 220 221 213 206 216 205 210 202 210 206 187 183 207 197 195 216 211 215 213 209 201 213 198 196 222 219 209 198 196 146 215 323 256 165 160 143 189 207 156 235 205 187 221 237 243 183 170 183 204 201 206 204 201 197 202 207 217 215 204 225 238 253 216 237 255 261 191 222 197 222 246 305 142 196 224 208 191 208 211 208
197 198 245 120 178 287 265 37 138 225 240 202 210 208 208 204 209 202 204 178 191 207 189 213 215 211 208 206 199 210 205 207 203 206 204 191 211 191 213 190 149 2 191 175 164 272 152 240 132 145 211 239 243 183 172 196 184 211 223 217 217 213 211 209 214 220 221 246 256 261 272 272 261 277 251 218 215 284 329 262 237 230 225 206 209 217 222 217
154 186 112 146 304 225 231 225 251 263 237 244 227 206 223 213 216 198 209 194 193 190 189 208 217 215 206 208 209 219 218 214 220 219 197 179 208 199 178 242 156 149 155 154 157 220 145 244 50 120 208 246 238 161 211 169 193 222 226 225 225 215 214 211 217 219 202 220 232 247 256 252 255 117 270 284 184 211 236 247 249 241 221 210 213 226 226 227
166 148 114 102 260 170 210 175 192 220 239 221 197 230 231 222 223 193 224 214 215 209 198 206 216 214 212 202 216 221 225 219 220 224 197 201 219 77 157 155 159 160 173 175 112 158 183 149 162 178 213 231 244 153 196 170 163 248 245 232 222 205 205 208 224 217 214 212 218 225 237 243 256 247 255 257 194 232 229 233 244 252 228 209 219 226 230 232